Regional Weather Roundup
Issued by NWS

Home | Current Version | Previous Version | Text Only | Print | Product List | Glossary On
Versions: 1 2 3 4 5 6 7 8 9 10 11 12 13 14 15 16 17 18 19 20 21 22 23 24 25 26 27 28 29 30 31 32 33 34 35 36 37 38 39 40 41 42 43 44 45 46 47 48 49 50
000
ASUS43 KDTX 101110
RWRMI
MICHIGAN HOURLY REGIONAL WEATHER ROUNDUP
NATIONAL WEATHER SERVICE DETROIT/PONTIAC MI
600 AM EST WED FEB 10 2016

NOTE: "FAIR" INDICATES FEW OR NO CLOUDS BELOW 12,000 FEET WITH NO
SIGNIFICANT WEATHER AND/OR OBSTRUCTION TO VISIBILITY.

MIZ047>049-052>055-059>063-066>070-074>076-081>083-101200-
SOUTHEAST LOWER MICHIGAN

CITY           SKY/WX    TMP DP  RH WIND       PRES   REMARKS
ADRIAN         CLOUDY    20  12  71 NW12G23   29.79R WCI   8
ALMA           CLOUDY    19  14  81 NW12      29.77R WCI   6
ANN ARBOR      CLOUDY    20  13  74 NW16      29.75R WCI   6
BAD AXE        LGT SNOW  18  15  88 NW13G18   29.70R VSB 1   WCI   5
CARO           CLOUDY    18  12  79 W13       29.72R WCI   4
DETROIT CITY   LGT SNOW  22  14  71 NW8       29.74R WCI  12
DETROIT        LGT SNOW  22  14  71 W17       29.76R WCI   8
FLINT          LGT SNOW  21  15  78 NW16      29.74R WCI   7
GROSSE ILE     CLOUDY    23  16  74 W8        29.74R WCI  14
HILLSDALE      FLURRIES  17  12  79 W12       29.76R WCI   4
HOWELL         LGT SNOW  19  14  84 W13       29.73R WCI   5

CITY           SKY/WX    TMP DP  RH WIND       PRES   REMARKS
JACKSON        LGT SNOW  18  12  77 NW13      29.76R WCI   5
LAMBERTVILLE   CLOUDY    22  17  78 W9        29.78R WCI  12
LANSING        LGT SNOW  18  13  80 W12       29.77R WCI   5
LAPEER         CLOUDY    19  14  81 NW12G17   29.71R WCI   7
MASON          LGT SNOW  18  14  83 W12       29.76R WCI   5
MONROE         CLOUDY    23  15  71 W14       29.76R WCI  11
MT. CLEMENS    FLURRIES  22  17  79 W10       29.71R WCI  11
PONTIAC        LGT SNOW  19  14  81 W16       29.70R WCI   4
PORT HOPE        N/A     20  17  88 NW20G30   29.67R WCI   4
PORT HURON     LGT SNOW  19  16  86 W6        29.71R WCI  11
TRI CITIES     LGT SNOW  18  12  77 NW15      29.76R WCI   4
MIDLAND        LGT SNOW  17  11  78 NW7G17    29.76R WCI   7
TROY           LGT SNOW  23  17  78 W6        29.75R WCI  16
SAGINAW HB     LGT SNOW  19  14  79 NW18G25   29.75R WCI   4
$$
MIZ043>046-050>051-056>058-064>065-071>073-077>080-101200-
SOUTHWEST LOWER MICHIGAN

CITY           SKY/WX    TMP DP  RH WIND       PRES   REMARKS
BATTLE CREEK   CLOUDY    19  12  74 NW10      29.80R WCI   7
BENTON HARBOR  LGT SNOW  21  13  71 NW10G22   29.88R WCI  10
BIG RAPIDS     CLOUDY    16  10  75 NW8       29.77S WCI   5
COLDWATER      LGT SNOW  19  15  85 W7        29.80R WCI   9
FREMONT        CLOUDY    17  10  74 NW15G22   29.82R WCI   3
HOLLAND        LGT SNOW  20  15  81 NW9       29.85R VSB 1   WCI   9
GRAND RAPIDS   FLURRIES  19  13  77 NW15G26   29.81R WCI   5
IONIA          LGT SNOW  18  15  86 NW9G16    29.78R WCI   7
KALAMAZOO      LGT SNOW  19  13  77 NW10      29.82R WCI   7
LUDINGTON      LGT SNOW  17  10  76 NW15G23   29.86R WCI   2
MARSHALL       FLURRIES  18  13  80 W10       29.78S WCI   6
MOUNT PLEASANT CLOUDY    18  11  71 NW8       29.76R WCI   8
MUSKEGON       FLURRIES  19  11  70 NW16G24   29.85S WCI   4
SOUTH HAVEN    LGT SNOW  20  13  71 NW16G24   29.86R WCI   6
$$
MIZ016>042-101200-
NORTHERN LOWER MICHIGAN

CITY           SKY/WX    TMP DP  RH WIND       PRES   REMARKS
ALPENA         LGT SNOW  11   5  77 NW10G21   29.73R WCI  -3
BEAVER ISLAND  MOCLDY    13   4  66 NW10G22   29.82R HAZE    WCI   0
BELLAIRE       LGT SNOW  13   8  79 N6        29.81R WCI   4
CADILLAC       CLOUDY    13   6  74 NW12G18   29.73R WCI  -1
CHARLEVOIX     LGT SNOW  14   9  80 N17G25    29.82S WCI  -3
FRANKFORT      CLOUDY    17  10  74 N14G22    29.84R WCI   3
GAYLORD        CLOUDY     8   1  73 NW10G17   29.71R HAZE    WCI  -6
GRAYLING       CLOUDY    10   3  75 NW13G20   29.74R WCI  -6
HARBOR SPRINGS LGT SNOW   9   4  78 N6        29.79S WCI  -1
HOUGHTON LAKE  CLOUDY    11   6  81 N8        29.73R HAZE    WCI  -1
MANISTEE       CLOUDY    18   7  62 NW17G26   29.83R WCI   2
OSCODA         LGT SNOW  13   8  78 NW16      29.71R WCI  -3
PELLSTON       LGT SNOW   8   2  76 N10       29.80R WCI  -6
ROGERS CITY    LGT SNOW  10   6  82 NW10G17   29.76R VSB 1   WCI  -4
TRAVERSE CITY  LGT SNOW  16   9  74 N15G28    29.80R WCI   1
$$
MIZ007>008-015-101200-
EASTERN UPPER MICHIGAN

CITY           SKY/WX    TMP DP  RH WIND       PRES   REMARKS
KINROSS        CLOUDY     3   0  85 N12       29.78R WCI -13
MACKINAC ISLAN LGT SNOW   6   1  81 N8        29.78S WCI  -7
NEWBERRY       LGT SNOW   7   4  87 N7        29.80R WCI  -5
S. S. MARIE    CLOUDY     3  -6  66 NW9G18    29.79R WCI -12
MUNISING         N/A     11   6  81 N21G29    29.86  WCI  -8
$$
MIZ004>006-011>014-085-101200-
CENTRAL UPPER MICHIGAN

CITY           SKY/WX    TMP DP  RH WIND       PRES   REMARKS
MANISTIQUE     LGT SNOW   9   5  84 NW6       29.83S WCI  -1
ESCANABA       MOCLDY     7   0  72 NW10G21   29.89R WCI  -8
MENOMINEE      CLEAR      7  -6  56 NW8       29.93S WCI  -6
SAWYER-GWINN   LGT SNOW   5   1  83 NW17G23   29.84S WCI -14
$$
MIZ001>003-009>011-084-101200-
WESTERN UPPER MICHIGAN

CITY           SKY/WX    TMP DP  RH WIND       PRES   REMARKS
IRON MOUNTAIN  PTCLDY     3  -5  69 NW13      29.91R WCI -14
HOUGHTON       CLOUDY     4  -3  73 N14       29.94S HAZE    WCI -14
COPPER HARBOR    N/A     10   6  84 NE21G35   29.96R WCI  -9
IRONWOOD       CLOUDY     7   3  85 N6        29.95S WCI  -3
$$

ABBREVIATIONS USED IN REMARKS
   TC - TEMPERATURE IN CELSIUS
  WCI - WIND CHILL INDEX
   HX - HEAT INDEX
  VSB - VISIBILITY




USA.gov is the U.S. government's official web portal to all federal, state and local government web resources and services.